CZ-2C R/B, 28222

Orbit data source: Space-Track

CZ-2C R/B, 28222 is space debris in SSO originally from a launch on Sun, 18 Apr 2004 UTC launched from the Xichang Space Center, China (XSC). Debris objects in space refer to the collection of defunct objects orbiting the Earth. Examples of debris include non-operational satellites, rocket bodies, and fragments generated from explosions, collisions, or faulty payload assembly.

Loading next visibility...
Identifier
28222, 2004-012C
Orbit
SSO
Country
Flag of CNCN / PRC
Related business
Manufacturer
CALT
Mission
Spacecraft
Bus & Motor
CZ-2 STAGE 2, Unknown motor
Mass
~3,800 kg wet, ~3,800 kg dry
Launch date (UTC)
2004-04-18 (22 years ago)
Launch vehicle
Unknown
Launch site
Xichang Space Center, China (XSC)
Object type
Payload
Rocket body
Debris
Shape & HBR
Cyl, 4.2 m
Radar Cross Section
26.048 m², Large (>1 m²)

Expand to show TLE details & history
Last TLE update: 18 hours ago

TLE from 18 hours ago
0 CZ-2C R/B
1 28222U 04012C   26171.20162357  .00092955  00000-0  50848-3 0  9994
2 28222  97.7079 247.2165 0009802 270.9770  89.0373 15.79516887220376
Epoch: 2026-06-20T04:50Z
TLE epoch observation values (Epoch: 2026-06-20T04:50:20.276Z)
Latitude
-0.00005°
Longitude
-93.78762°
Altitude
334.866 km
Speed
7.708 km/s
True Right ascension
16h 28m 51s
True Declination
0° 00' 00"
Sunlit
Object was in full shadow at epoch
Visualization orbit readout
Latitude
Unknown
Longitude
Unknown
Altitude
Unknown
Speed
Unknown
Apparent Right ascension
Unknown
Apparent Declination
Unknown
Sunlit
N/A
Visualization observer readout
Local Sidereal Time
09:40:35
Azimuth
Unknown
Elevation
Unknown
Doppler factor
Unknown
Orbital elements
Apogee altitude
335.283 km
Perigee altitude
322.135 km
Semi-major axis
6,706.846 km
Eccentricity
0.00098
Inclination
97.7079°
RAAN
247.2165°
Arg. of periapsis
270.977°
True anomaly
89.14961°
Mean anomaly
89.0373°
Eccentric anomaly
89.09345°
Mean motion
3.95153 °/min
Orbital period
91.1 mins
BSTAR
0.00050848
Loading maneuver chart data...
Computing Atmospheric mass density...
Loading historical data...
Loading historical data...
Loading historical data...
Loading historical data...
Loading historical data...
Loading historical data...
Loading historical data...

Documentation

Showing up to 5 results
|